This demonstration page uses our WeatherBlox Daily Observations layout. Learn more.

Left ArrowRight Arrow

39.01783, -85.05884

Hourly Observations for September 9, 2017

Temp ( °F °C ) Dew Point ( °F °C ) Humidity (%) Winds ( mph kmh ) Pressure ( in mb ) Visibility ( mi km ) Precip ( " mm )
12:52 am 00:52 Mostly Clear 60 15.6 54 12.2 80 80 E 7 11 30.26 1025 10 16 0.00 0.00
1:52 am 01:52 Mostly Cloudy 62 16.7 54 12.2 75 75 E 8 13 30.26 1025 10 16 0.00 0.00
2:52 am 02:52 Mostly Cloudy 61 16.1 54 12.2 78 78 E 8 13 30.27 1025 10 16 0.00 0.00
3:52 am 03:52 Mostly Cloudy 61 16.1 53 11.7 75 75 E 3 6 30.27 1025 10 16 0.00 0.00
4:52 am 04:52 Mostly Cloudy 60 15.6 54 12.2 80 80 E 3 6 30.27 1025 10 16 0.00 0.00
5:52 am 05:52 Cloudy 61 16.1 54 12.2 78 78 ENE 8 13 30.29 1026 10 16 0.00 0.00
6:52 am 06:52 Cloudy 61 16.1 54 12.2 78 78 ENE 8 13 30.31 1026 10 16 0.00 0.00
7:52 am 07:52 Mostly Cloudy 60 15.6 55 12.8 84 84 E 10 17 30.33 1027 10 16 0.00 0.00
8:52 am 08:52 Mostly Cloudy 60 15.6 53 11.7 78 78 ENE 12 19 30.35 1028 10 16 0.00 0.00
9:52 am 09:52 Partly Cloudy 62 16.7 53 11.7 73 73 E 12 19 30.36 1028 10 16 0.00 0.00
10:52 am 10:52 Mostly Sunny 65 18.3 53 11.7 66 66 NE 10 17 30.37 1029 10 16 0.00 0.00
11:52 am 11:52 Partly Cloudy 67 19.4 52 11.1 59 59 NE 14 22 30.37 1028 10 16 0.00 0.00
12:52 pm 12:52 Partly Cloudy 69 20.6 52 11.1 55 55 E 12 19 30.36 1028 10 16 0.00 0.00
1:52 pm 13:52 Partly Cloudy 71 21.7 52 11.1 51 51 E 14 22 30.35 1028 10 16 0.00 0.00
2:52 pm 14:52 Mostly Cloudy 71 21.7 50 10 47 47 NE 6 9 30.34 1027 10 16 0.00 0.00
3:52 pm 15:52 Partly Cloudy 73 22.8 48 8.9 41 41 N 10 17 30.31 1027 10 16 0.00 0.00
4:52 pm 16:52 Partly Cloudy 72 22.2 48 8.9 43 43 ENE 9 15 30.30 1026 10 16 0.00 0.00
5:52 pm 17:52 Mostly Sunny 71 21.7 46 7.8 41 41 ENE 9 15 30.30 1026 10 16 0.00 0.00
6:52 pm 18:52 Mostly Sunny 69 20.6 46 7.8 44 44 E 12 19 30.30 1026 10 16 0.00 0.00
7:52 pm 19:52 Sunny 66 18.9 47 8.3 50 50 E 9 15 30.30 1026 10 16 0.00 0.00
8:52 pm 20:52 Clear 65 18.3 46 7.8 51 51 ENE 10 17 30.32 1027 10 16 0.00 0.00
9:52 pm 21:52 Clear 64 17.8 46 7.8 52 52 ENE 8 13 30.33 1027 10 16 0.00 0.00
10:52 pm 22:52 Clear 60 15.6 47 8.3 62 62 E 5 7 30.33 1027 10 16 0.00 0.00
11:52 pm 23:52 Clear 60 15.6 47 8.3 62 62 ENE 8 13 30.33 1027 10 16 0.00 0.00

Powered by AerisWeather